Location: De Lemmer
(52.8462°N, 5.7091°E)
Time: 11:16:17
(UTC+00:00)

Lacrosse 5 rocket - Pass Details

Date: 18 September 2020
Orbit: 460 x 636 km, 57.0° (Epoch: 30 October)

Event Time Altitude Azimuth Distance (km) Brightness Sun altitude
Rises 21:25:44 0° 290° (WNW) 2,833 5.8 -29.7°
Reaches altitude 10° 21:28:00 10° 294° (WNW) 1,955 4.8 -29.9°
Enters shadow 21:30:52 37° 313° (NW) 968 2.9 -30.2°
